sat.trackr.live / text

‹ back to catalog

POPACS 2

NORAD 39269 · 2013-055E

PAYLOAD ACTIVE UNKNOWN

§ Identity

Operator
Country
US
Launch date
2013-09-29
Launch site
AFWTR
Launch vehicle
Mass (kg)
RCS (m²)
0.02

Purposes: tech_demo

External: N2YO · Heavens-Above · Gunter

§ Orbital elements

Epoch: 2026-09-10T04:20:48.119136Z

Period
96.40 min
Inclination
80.9897°
Eccentricity
0.0406037
Mean motion
14.93787226 rev/d
Perigee alt
303.4 km
Apogee alt
868.9 km
Semi-major
6,964.3 km
B*
1.7044e-4
RAAN
46.6972°
Arg perigee
280.4150°
Mean anomaly
75.1554°
Rev number
67,589

§ Raw data

POPACS 21 39269U 13055E   26253.18111249  .00010248  00000+0  17044-3 0  99912 39269  80.9897  46.6972 0406037 280.4150  75.1554 14.93787226675897

JSON: /api/v1/satellites/39269 · /tle

For live sub-satellite position, see the globe view (requires WebGL).

§ Visibility from observer

Set your observer location to see the next 7 days of passes ≥ 10°. The values pass through the URL so the page stays shareable.

No JS? Fill the form by hand. The geolocation button needs JavaScript.